This demonstration page uses our WeatherBlox Daily Observations layout. Learn more.

Left ArrowRight Arrow

41.55636, -103.73856

Hourly Observations for October 26, 2018

Temp ( °F °C ) Dew Point ( °F °C ) Humidity (%) Winds ( mph kmh ) Pressure ( in mb ) Visibility ( mi km ) Precip ( " mm )
12:58 am 00:58 Cloudy 50 10 33 0.8 53 53 NW 14 22 29.97 1015 10 16 N/A
1:58 am 01:58 Cloudy 49 9.5 34 0.9 55 55 NW 10 17 29.97 1015 10 16 N/A
2:58 am 02:58 Mostly Cloudy 45 7.3 36 2.1 70 70 NW 12 19 30.03 1017 10 16 N/A
3:58 am 03:58 Mostly Clear 41 5.1 34 1.1 76 76 WNW 10 17 30.00 1016 10 16 N/A
4:58 am 04:58 Clear 42 5.7 33 0.4 69 69 NW 13 20 30.01 1016 10 16 N/A
5:58 am 05:58 Clear 42 5.6 32 undefined 68 68 NW 13 20 30.05 1018 10 16 N/A
6:58 am 06:58 Clear 42 5.5 31 -0.4 66 66 WNW 15 24 30.06 1018 10 16 N/A
7:58 am 07:58 Sunny 42 5.7 32 -0.2 66 66 NW 15 24 30.06 1018 10 16 N/A
8:58 am 08:58 Sunny 46 8 32 0.1 58 58 WNW 14 22 30.07 1018 10 16 N/A
9:58 am 09:58 Sunny 52 11.1 31 -0.6 45 45 NW 18 30 30.05 1018 10 16 N/A
10:58 am 10:58 Sunny 56 13.2 30 -1.3 37 37 NW 17 28 30.03 1017 10 16 N/A
11:58 am 11:58 Sunny 57 14 27 -2.8 31 31 NW 21 33 30.01 1016 10 16 N/A
12:58 pm 12:58 Sunny 61 16.2 24 -4.7 24 24 NW 20 31 29.96 1015 10 16 N/A
1:58 pm 13:58 Sunny 64 17.7 19 -7.4 17 17 NNW 20 31 29.93 1014 10 16 N/A
2:58 pm 14:58 Sunny 64 17.8 23 -5.2 21 21 NW 21 33 29.92 1013 10 16 N/A
3:58 pm 15:58 Sunny 64 17.7 19 -7 18 18 NNW 22 35 29.93 1014 10 16 N/A
4:58 pm 16:58 Sunny 62 16.6 23 -5.2 22 22 N 15 24 29.95 1014 10 16 N/A
5:58 pm 17:58 Sunny 54 12 24 -4.3 32 32 N 10 17 29.98 1015 10 16 N/A
6:58 pm 18:58 Clear 51 10.7 26 -3.5 37 37 NW 10 17 30.02 1017 10 16 N/A
7:58 pm 19:58 Mostly Clear 45 7.4 27 -2.8 49 49 WNW 10 17 30.05 1018 10 16 N/A
8:58 pm 20:58 Mostly Cloudy 46 8 29 -1.7 51 51 WNW 14 22 30.02 1017 10 16 N/A
9:58 pm 21:58 Mostly Cloudy 47 8.6 32 -0.2 54 54 NNW 10 17 30.02 1017 10 16 N/A
10:58 pm 22:58 Mostly Clear 47 8.2 32 undefined 57 57 NW 9 15 30.02 1017 10 16 N/A
11:58 pm 23:58 Clear 45 7 32 undefined 61 61 NW 9 15 30.02 1017 10 16 N/A

Powered by AerisWeather